DROR 1

Last updated on Tue Sep 22 2026 00:03:16 GMT+0000 (Coordinated Universal Time)

1 64784U 25148A 26264.27448306 -.00000038 00000+0 00000+0 0 9993 2 64784 0.0034 76.4441 0000542 145.5243 232.9859 1.00273171 4250
UTC large
Height (km)
Speed (km/s)
/
Latitude / Longitude
Inclination (degrees)
Orbital Period (minutes)
Azimuth
Elevation
Range (km)
Doppler Factor

Next 0 passes for location: London (51.5072 / 0.1276)

No passes found over London.
DROR 1